GW6217 Weather Reports


time (UTC)temp
C
wind
direction
speed
KPH
gust
KPH
rain 1hr
cm
rain 24hr
cm
rain mn
cm
humidity
%
barometer
mb
20260505071517 17 53 3.2 14.5 0.00 0.00 0.00 74 1006.0
20260505070012 17 96 3.2 9.7 0.00 0.00 0.00 73 1006.0
20260505064530 17 79 4.8 16.1 0.00 0.00 0.00 73 1006.0
20260505063010 17 57 4.8 14.5 0.00 0.00 0.00 74 1006.0
20260505061517 17 68 3.2 8.0 0.00 0.00 0.00 74 1006.0
20260505060011 18 74 3.2 11.3 0.00 0.00 0.00 73 1005.9
20260505054512 18 92 3.2 12.9 0.00 0.00 0.00 72 1006.2
20260505053015 18 36 3.2 17.7 0.00 0.00 0.00 71 1006.4
20260505051507 18 36 4.8 11.3 0.00 0.00 0.00 72 1006.0
20260505041516 18 79 3.2 12.9 0.00 0.00 0.00 73 1006.6
20260505040008 18 59 4.8 12.9 0.00 0.00 0.00 72 1006.8
20260505034512 18 79 1.6 11.3 0.00 0.00 0.00 71 1007.0
20260505033015 18 43 3.2 12.9 0.00 0.00 0.00 70 1007.2
20260505031517 18 84 1.6 14.5 0.00 0.00 0.00 70 1007.1
20260505030006 19 18 3.2 9.7 0.00 0.00 0.00 68 1007.2
20260505024519 19 96 3.2 9.7 0.00 0.00 0.00 67 1007.0
20260505023003 20 77 3.2 9.7 0.00 0.00 0.00 65 1006.7
20260505021504 20 46 1.6 8.0 0.00 0.00 0.00 65 1006.5
20260505020011 20 80 1.6 11.3 0.00 0.00 0.00 63 1006.4
20260505014506 20 81 3.2 9.7 0.00 0.00 0.00 62 1006.1
20260505013011 21 59 3.2 8.0 0.00 0.00 0.00 61 1005.9
20260505011504 21 65 1.6 14.5 0.00 0.00 0.00 60 1005.7
20260505010004 21 59 3.2 9.7 0.00 0.00 0.00 60 1005.5
20260505004508 22 65 1.6 6.4 0.00 0.00 0.00 59 1005.4
20260505003007 22 75 3.2 9.7 0.00 0.00 0.00 56 1005.3
20260505001512 23 75 1.6 14.5 0.00 0.00 0.00 54 1005.3
20260505000008 23 86 8.0 19.3 0.00 0.00 0.00 51 1005.4
20260504234505 25 56 8.0 17.7 0.00 0.00 0.00 50 1005.5
20260504233007 25 53 4.8 11.3 0.00 0.00 0.00 51 1005.4
20260504231512 25 66 9.7 20.9 0.00 0.00 0.00 51 1005.5
20260504230014 25 69 6.4 19.3 0.00 0.00 0.00 51 1005.6
20260504224506 25 98 3.2 16.1 0.00 0.00 0.00 51 1005.5
20260504223006 25 70 6.4 29.0 0.00 0.00 0.00 50 1005.6
20260504221510 25 58 8.0 24.1 0.00 0.00 0.00 49 1005.6
20260504220015 25 94 9.7 16.1 0.00 0.00 0.00 51 1005.6
20260504214515 25 79 9.7 24.1 0.00 0.00 0.00 52 1005.8
20260504213004 25 56 8.0 24.1 0.00 0.00 0.00 50 1005.9
20260504211508 25 106 8.0 32.2 0.00 0.00 0.00 50 1006.0
20260504210013 25 87 11.3 22.5 0.00 0.00 0.00 51 1006.2
20260504204514 25 96 11.3 25.7 0.00 0.00 0.00 52 1006.3
20260504203027 25 99 11.3 33.8 0.00 0.00 0.00 51 1006.5
20260504201505 25 66 9.7 32.2 0.00 0.00 0.00 51 1006.7
20260504200010 25 59 6.4 25.7 0.00 0.00 0.00 52 1006.8
20260504194515 25 53 9.7 30.6 0.00 0.00 0.00 51 1006.9
20260504193019 25 68 9.7 29.0 0.00 0.00 0.00 50 1007.1
20260504191525 25 129 9.7 29.0 0.00 0.00 0.00 50 1007.2
20260504190008 25 14 9.7 24.1 0.00 0.00 0.00 51 1007.4
20260504184514 25 71 11.3 29.0 0.00 0.00 0.00 51 1007.3
20260504183017 24 67 14.5 33.8 0.00 0.00 0.00 50 1007.4
20260504181504 24 94 17.7 29.0 0.00 0.00 0.00 52 1007.3
20260504180008 24 60 8.0 29.0 0.00 0.00 0.00 53 1007.5
20260504174508 24 84 4.8 24.1 0.00 0.00 0.00 53 1007.5
20260504173003 24 153 8.0 25.7 0.00 0.00 0.00 54 1007.6
20260504171504 23 68 8.0 33.8 0.00 0.00 0.00 54 1007.6
20260504081504 16 77 1.6 12.9 0.00 0.00 0.00 67 1010.4